Find Starlink 30701

NORAD ID: 57950 Int'l Des: 2023-148 Owner: SPXS Country: US Constellation: starlink operational
LEOCIRCULAR

現在のビュー

3D地球を読み込み中...

About Starlink 30701

Starlink 30701 (NORAD 57950) is a starlink constellation satellite (v2 mini) launched Sep 25, 2023 by SPXS of US. It operates in LEO, CIRCULAR orbit with a mass of 730.00 kg.

Starlink 30701について

説明を読み込み中...

次回通過

Passes for default location (London). Set your location on the main map for personalized predictions.

高度履歴

Loading altitude history...

軌道要素

1 57950U 23148R 26174.70041618 .00001475 00000-0 54775-4 0 9990
2 57950 53.1598 251.1067 0000966 100.1951 259.9161 15.34403679154666
Epoch: Jun 23, 2026 • Age: 44 hours

現在のステータス

高度 463.1 km
速度 7.64 km/s
衛星直下点 20.56°N, 154.72°E
打ち上げ日 Sep 25, 2023
運用期間 2.7 years
タイプ internet

技術仕様

分類 Payload
質量 730.00 kg
乾燥質量 700.00 kg
総質量 730.00 kg
長さ 0.30 m
直径 4.10 m
スパン 29.00 m
形状 Box + pan
製造者 SPXS
バスタイプ Starlink V2M
フェーズステータス In Orbit
所有者/国 SPXS/US

Most Searched